When you browse on this site, cookies collect data to enhance your experience and personalize the content and advertising you see.
Visit our Privacy Policy to learn more. By continuing to use the site, you agree to this use of cookies and data.
  • In Hungary
  • List of Countries
  • For 7 days
  • Water Temperature
  • Satellite Maps
  • Weather Map
  • News
  • Weather Widgets
  • user-avatar
    Login

    Hourly Weather Ladyzheno

    Today, 17 November, Saturday

    Time Temperature Precipitation Wind Pressure Humidity
    00:00 -3°C° 0 mm 1 mps 761 mmHg 51%
    01:00 -3°C° 0 mm 1 mps 761 mmHg 50%
    02:00 -4°C° 0 mm 0 mps 761 mmHg 49%
    03:00 -3°C° 0 mm 1 mps 761 mmHg 48%
    04:00 -3°C° 0 mm 1 mps 760 mmHg 48%
    05:00 -3°C° 0 mm 1 mps 760 mmHg 47%
    06:00 -3°C° 0 mm 1 mps 760 mmHg 48%
    07:00 -3°C° 0 mm 1 mps 760 mmHg 48%
    08:00 -3°C° 0 mm 1 mps 759 mmHg 48%
    09:00 -2°C° 0 mm 1 mps 759 mmHg 47%
    10:00 0°C° 0 mm 1 mps 759 mmHg 45%
    11:00 +1°C° 0 mm 1 mps 759 mmHg 44%
    12:00 +1°C° 0 mm 1 mps 758 mmHg 47%
    13:00 +1°C° 0 mm 1 mps 758 mmHg 50%
    14:00 -1°C° 0 mm 2 mps 757 mmHg 53%
    15:00 -2°C° 0 mm 2 mps 756 mmHg 57%
    16:00 -3°C° 0 mm 2 mps 756 mmHg 60%
    17:00 -4°C° 0 mm 2 mps 755 mmHg 63%
    18:00 -4°C° 0 mm 2 mps 755 mmHg 64%
    19:00 -4°C° 0 mm 3 mps 754 mmHg 64%
    20:00 -4°C° 0 mm 3 mps 753 mmHg 65%
    21:00 -4°C° 0 mm 3 mps 753 mmHg 66%
    22:00 -4°C° 0 mm 3 mps 752 mmHg 66%
    23:00 -4°C° 0 mm 3 mps 751 mmHg 67%

    Tomorrow, 18 November, Sunday

    Time Temperature Precipitation Wind Pressure Humidity
    00:00 -2°C° 0 mm 3 mps 751 mmHg 70%
    01:00 -2°C° 0 mm 3 mps 750 mmHg 73%
    02:00 -2°C° 0 mm 3 mps 749 mmHg 76%
    03:00 -2°C° 0.1 mm 3 mps 749 mmHg 80%
    04:00 -2°C° 0.1 mm 3 mps 748 mmHg 83%
    05:00 -2°C° 0.1 mm 3 mps 747 mmHg 87%
    06:00 -2°C° 0.1 mm 3 mps 747 mmHg 89%
    07:00 -2°C° 0.1 mm 3 mps 746 mmHg 91%
    08:00 -2°C° 0.1 mm 2 mps 746 mmHg 93%
    09:00 -2°C° 0.1 mm 2 mps 746 mmHg 93%
    10:00 -1°C° 0.1 mm 2 mps 745 mmHg 92%
    11:00 -1°C° 0.1 mm 2 mps 745 mmHg 92%
    12:00 -1°C° 0 mm 2 mps 745 mmHg 92%
    13:00 -1°C° 0 mm 2 mps 745 mmHg 92%
    14:00 +2°C° 0 mm 1 mps 745 mmHg 93%
    15:00 +1°C° 0 mm 1 mps 745 mmHg 94%
    16:00 +1°C° 0 mm 1 mps 745 mmHg 95%
    17:00 +1°C° 0 mm 1 mps 745 mmHg 96%
    18:00 +1°C° 0 mm 1 mps 746 mmHg 96%
    19:00 +1°C° 0 mm 1 mps 746 mmHg 97%
    20:00 0°C° 0 mm 0 mps 746 mmHg 97%
    21:00 0°C° 0 mm 0 mps 746 mmHg 96%
    22:00 -1°C° 0 mm 0 mps 746 mmHg 96%
    23:00 -1°C° 0 mm 0 mps 747 mmHg 96%

    Day after tomorrow, 19 November, Monday

    Time Temperature Precipitation Wind Pressure Humidity
    00:00 -1°C° 0 mm 0 mps 747 mmHg 96%
    01:00 -1°C° 0 mm 0 mps 747 mmHg 96%
    02:00 -1°C° 0 mm 0 mps 747 mmHg 96%
    03:00 -1°C° 0 mm 0 mps 747 mmHg 96%
    04:00 -1°C° 0 mm 0 mps 748 mmHg 96%
    05:00 -1°C° 0 mm 0 mps 748 mmHg 96%
    06:00 0°C° 0 mm 1 mps 748 mmHg 96%
    07:00 0°C° 0 mm 1 mps 749 mmHg 96%
    08:00 0°C° 0 mm 1 mps 749 mmHg 96%
    09:00 -2°C° 0 mm 2 mps 749 mmHg 94%
    10:00 -1°C° 0 mm 2 mps 750 mmHg 91%
    11:00 +1°C° 0 mm 2 mps 750 mmHg 89%
    12:00 +1°C° 0 mm 2 mps 750 mmHg 89%
    13:00 +1°C° 0 mm 2 mps 750 mmHg 89%
    14:00 +1°C° 0 mm 2 mps 750 mmHg 89%
    15:00 -1°C° 0 mm 2 mps 751 mmHg 90%
    16:00 -1°C° 0 mm 2 mps 751 mmHg 92%
    17:00 -2°C° 0 mm 2 mps 751 mmHg 94%
    18:00 -2°C° 0 mm 3 mps 751 mmHg 93%
    19:00 -2°C° 0 mm 3 mps 751 mmHg 93%
    20:00 -2°C° 0 mm 3 mps 751 mmHg 93%
    21:00 -2°C° 0 mm 3 mps 751 mmHg 93%
    22:00 -2°C° 0 mm 3 mps 751 mmHg 92%
    23:00 -1°C° 0 mm 3 mps 751 mmHg 92%

    20 November, Tuesday

    Time Temperature Precipitation Wind Pressure Humidity
    00:00 -2°C° 0 mm 3 mps 751 mmHg 92%
    01:00 -2°C° 0 mm 3 mps 751 mmHg 92%
    02:00 -2°C° 0 mm 3 mps 751 mmHg 92%
    03:00 -2°C° 0 mm 3 mps 751 mmHg 93%
    04:00 -2°C° 0 mm 3 mps 750 mmHg 93%
    05:00 -4°C° 0 mm 3 mps 750 mmHg 94%
    06:00 -2°C° 0 mm 3 mps 750 mmHg 94%
    07:00 -2°C° 0 mm 3 mps 750 mmHg 94%
    08:00 -2°C° 0 mm 3 mps 749 mmHg 93%
    09:00 -2°C° 0 mm 3 mps 749 mmHg 90%
    10:00 -1°C° 0 mm 3 mps 749 mmHg 87%
    11:00 -1°C° 0 mm 3 mps 749 mmHg 84%
    12:00 -1°C° 0 mm 3 mps 749 mmHg 83%
    13:00 -1°C° 0 mm 3 mps 748 mmHg 83%
    14:00 -1°C° 0 mm 2 mps 748 mmHg 82%
    15:00 -2°C° 0 mm 2 mps 748 mmHg 86%
    16:00 -2°C° 0 mm 2 mps 748 mmHg 89%
    17:00 -3°C° 0 mm 2 mps 748 mmHg 93%
    18:00 -3°C° 0 mm 2 mps 748 mmHg 93%
    19:00 -3°C° 0 mm 2 mps 748 mmHg 93%
    20:00 -3°C° 0 mm 2 mps 748 mmHg 94%
    21:00 -3°C° 0 mm 2 mps 748 mmHg 94%
    22:00 -3°C° 0 mm 2 mps 747 mmHg 93%
    23:00 -3°C° 0 mm 2 mps 747 mmHg 93%

    21 November, Wednesday

    Time Temperature Precipitation Wind Pressure Humidity
    00:00 -3°C° 0 mm 2 mps 747 mmHg 94%
    01:00 -3°C° 0 mm 2 mps 747 mmHg 94%
    02:00 -4°C° 0 mm 2 mps 747 mmHg 95%
    03:00 -4°C° 0 mm 2 mps 747 mmHg 95%
    04:00 -4°C° 0 mm 2 mps 747 mmHg 95%
    05:00 -4°C° 0 mm 2 mps 747 mmHg 95%
    06:00 -4°C° 0 mm 2 mps 747 mmHg 95%
    07:00 -4°C° 0 mm 2 mps 748 mmHg 94%
    08:00 -4°C° 0 mm 2 mps 748 mmHg 94%
    09:00 -3°C° 0 mm 2 mps 748 mmHg 89%
    10:00 -3°C° 0 mm 2 mps 748 mmHg 85%
    11:00 -2°C° 0 mm 2 mps 748 mmHg 80%
    12:00 -2°C° 0 mm 2 mps 748 mmHg 80%
    13:00 -2°C° 0 mm 2 mps 748 mmHg 80%
    14:00 -1°C° 0 mm 2 mps 748 mmHg 79%
    15:00 -2°C° 0 mm 2 mps 748 mmHg 82%
    16:00 -3°C° 0 mm 2 mps 748 mmHg 86%
    17:00 -3°C° 0 mm 2 mps 748 mmHg 89%
    18:00 -4°C° 0 mm 2 mps 749 mmHg 88%
    19:00 -4°C° 0 mm 2 mps 749 mmHg 87%
    20:00 -4°C° 0 mm 2 mps 749 mmHg 86%
    21:00 -4°C° 0 mm 2 mps 749 mmHg 84%
    22:00 -4°C° 0 mm 2 mps 749 mmHg 83%
    23:00 -4°C° 0 mm 2 mps 749 mmHg 81%

    22 November, Thursday

    Time Temperature Precipitation Wind Pressure Humidity
    00:00 -4°C° 0 mm 2 mps 750 mmHg 81%
    01:00 -3°C° 0 mm 2 mps 750 mmHg 81%
    02:00 -1°C° 0 mm 1 mps 750 mmHg 81%
    03:00 -3°C° 0 mm 2 mps 750 mmHg 81%
    04:00 -3°C° 0 mm 2 mps 750 mmHg 81%
    05:00 -3°C° 0 mm 2 mps 750 mmHg 82%
    06:00 -3°C° 0 mm 2 mps 750 mmHg 82%
    07:00 -3°C° 0 mm 2 mps 750 mmHg 82%
    08:00 -3°C° 0 mm 2 mps 750 mmHg 82%
    09:00 -4°C° 0 mm 3 mps 750 mmHg 79%
    10:00 -4°C° 0 mm 3 mps 751 mmHg 77%
    11:00 -2°C° 0 mm 3 mps 751 mmHg 74%
    12:00 -2°C° 0 mm 3 mps 751 mmHg 74%
    13:00 -2°C° 0 mm 3 mps 750 mmHg 74%
    14:00 -3°C° 0 mm 4 mps 750 mmHg 74%
    15:00 -4°C° 0 mm 3 mps 750 mmHg 77%
    16:00 -4°C° 0 mm 3 mps 750 mmHg 79%
    17:00 -4°C° 0 mm 3 mps 750 mmHg 81%
    18:00 -5°C° 0 mm 3 mps 751 mmHg 82%
    19:00 -5°C° 0 mm 3 mps 751 mmHg 84%
    20:00 -5°C° 0 mm 3 mps 751 mmHg 85%
    21:00 -5°C° 0 mm 3 mps 751 mmHg 87%
    22:00 -4°C° 0 mm 2 mps 751 mmHg 89%
    23:00 -4°C° 0 mm 2 mps 751 mmHg 91%
    Show more